Showing default

LEMUR 2 SEJONG-2, 64586

Orbit data source: Space-Track

LEMUR 2 SEJONG-2, 64586 is a payload satellite owned by Hancom InSpace (US) in SSO that was launched on Mon, 23 Jun 2025 UTC via an FALCON 9 launch vehicle from the Air Force Western Test Range (AFWTR). Payload-class satellites include a variety of spacecraft equipped with specific instruments for various scientific and technological missions. These include communications satellites like Starlink; space stations such as the ISS; scientific satellites like the Hubble; Earth observation satellites from companies like Planet Labs, Umbra, and HawkEye 360; GPS; miniature CubeSats for education and research; and military/defense satellites.

Loading next visibility...
Identifier
64586, 2025-135BL
Orbit
SSO
Country
Flag of USUS
Related business
Manufacturer
Spire/Glasgow
Mission
Operational Commercial Imaging
Bus & Motor
CUBESAT 6U, Unknown motor
Mass
11 kg wet, 11 kg dry
Launch date (UTC)
2025-06-23 (8 months ago)
Launch vehicle
FALCON 9
Launch site
Air Force Western Test Range (AFWTR)
Object type
Payload
Rocket body
Debris
Shape & HBR
Box + 2 Pan, 0.4 m
Radar Cross Section
0.077 m², Small (<0.1 m²)

Expand to show TLE details & history
Last TLE update: 9 hours ago

TLE from 9 hours ago
0 LEMUR 2 SEJONG-2
1 64586U 25135BL  26062.57261508  .00008178  00000-0  74130-3 0  9997
2 64586  97.7555 178.4820 0003704 326.3086  33.7899 14.95597147 38159
Epoch: 2026-03-03T13:44Z
TLE epoch observation values (Epoch: 2026-03-03T13:44:33.942Z)
Latitude
-0.00004°
Longitude
170.99084°
Altitude
581.425 km
Speed
7.571 km/s
True Right ascension
11h 53m 55s
True Declination
0° 00' 00"
Sunlit
Object was in full shadow at epoch
Visualization orbit readout
Latitude
Unknown
Longitude
Unknown
Altitude
Unknown
Speed
Unknown
Apparent Right ascension
Unknown
Apparent Declination
Unknown
Sunlit
N/A
Visualization observer readout
Local Sidereal Time
02:02:25
Azimuth
Unknown
Elevation
Unknown
Doppler factor
Unknown
Orbital elements
Apogee altitude
580.11 km
Perigee altitude
574.957 km
Semi-major axis
6,955.67 km
Eccentricity
0.00037
Inclination
97.7555°
RAAN
178.482°
Arg. of periapsis
326.3086°
True anomaly
33.81351°
Mean anomaly
33.7899°
Eccentric anomaly
33.80171°
Mean motion
3.7414 °/min
Orbital period
96.22 mins
BSTAR
0.0007413
Loading maneuver chart data...
Computing Atmospheric mass density...
Loading historical data...
Loading historical data...
Loading historical data...
Loading historical data...
Loading historical data...
Loading historical data...
Loading historical data...

Documentation

Showing up to 5 results
|